OBJECT A

Satellite information

Favourite Embed

Satellite Type and Status

UNKNOWNIN ORBIT

Key statistics

Satellite OBJECT A at a glance.

Uptime

24

Days in orbit

Revolutions

≈ 14.2

Per day

Orbit

SSO

Sun Synchronous Orbit

Inclination

98.6

Latest

Satellite identification and parameters

Extended collection of information and parameters for OBJECT A.

Object identification

Identified? True

Debris? False

Object name: OBJECT A

International designator: 2025-219A

Object number (NORAD): 65815

Object ID (CCSDS): 65815

Country: PEOPLES REPUBLIC OF CHINA (PRC)

Current information (Y/N): Y

Orbital parameters

Period: 101.417 minutes

Inclination: 98.6488 deg

SMA: 7203.889 km

Apoapsis: 826.874 km

Periapsis: 824.635 km

RAAN: 233.7453 deg

Eccentricy: 0.0001554

Argument of periapsis: 72.3823 deg

Mean anomaly: 287.7523 deg

Mean motion: 14.19881943 rev/day

Mean motion (dot): 0.00000198 rev/day2

B* drag term: 0.000113393 1/REarth

Two-line elements (TLE)

Creation date: Oct. 20, 2025, 2:10 a.m.

Reference frame: TEME

Reference center: EARTH

Epoch: Oct. 19, 2025, 11:05 p.m. UTC

TLE line 0: 0 OBJECT A

TLE line 1: 1 65815U 25219A 25292.96202927 .00000198 00000-0 11339-3 0 9999

TLE line 2: 2 65815 98.6488 233.7453 0001554 72.3823 287.7523 14.19881943 3293

Live tracking on map

Real-time ground track for satellite OBJECT A.

In-orbit conjunctions

There are no conjunctions computed for OBJECT A, at the moment. Check back to stay up to date, as we update our databases every day.

Go to all conjunctions

Associated space launch

The Fengyun-3 (FY-3) series is the 2nd generation of Chinese polar-orbiting meteorological satellites, following on from the FY-1 series. The series has been developed collaboratively by CMA (Chinese Meteorological Administration) and CNSA (China National Space Administration). The FY-3 series’ objectives are to provide global measurements of 3-D temperature and moisture soundings, cloud and precipitation parameters, meteorological and hydrological events, biosphere anomalies and geophysical parameters in support of global change and climate monitoring.

OBJECT A was lifted into orbit during the mission ‘Long March 4C | Fengyun-3H’, on board a Long March 4C space rocket.

The launch took place on Sept. 26, 2025, 7:28 p.m. from Launch Area 4 (SLS-2 / 603).

For more information about the launch, click the button.

Launch to space Long March 4C | Fengyun-3H
Long March 4C | Fengyun-3H

Agency: N/A

Status: Launch Successful

Launch date: Sept. 26, 2025, 7:28 p.m. UTC

Rocket: Long March 4C

Launch pad: Launch Area 4 (SLS-2 / 603)

Location: Jiuquan Satellite Launch Center, People's Republic of China

...

Latest news about this satellite

News about space launch
China boosts broadband, IoT and weather satellite fleets with flurry of launches

A flurry of launch activity has seen China add to an Internet of Things constellation, loft new broadband satellites and boost its weather satellite fleet. The post China boosts broadband, IoT and weather satellite fleets with flurry of launches appeared...

News about space launch
Launch Roundup: Kuiper, Starlink, IMAP headline launch manifest

A busy slate of launches is planned for the last full week of September, including… The post Launch Roundup: Kuiper, Starlink, IMAP headline launch manifest appeared first on NASASpaceFlight.com.


Newsletter sign-up

Weekly statistics, charts and insights to help you stay on top of the space industry.